Weather History for Shelton, WA

Change the Weather History Date:

Sunday, February 3, 2013

  Actual Average Record
Temperature  
Mean Temperature 42 °F -  
Max Temperature 46 °F 46 °F 59 °F (2000)
Min Temperature 37 °F 33 °F 6 °F (1950)
Degree Days  
Heating Degree Days 24    
Moisture  
Dew Point 42 °F    
Average Humidity 94    
Maximum Humidity 100    
Minimum Humidity 86    
Precipitation  
Precipitation 0.01 in - - ()
Sea Level Pressure  
Sea Level Pressure 30.25 in    
Wind  
Wind Speed 5 mph (SW)    
Max Wind Speed 13 mph    
Max Gust Speed -    
Visibility 10 miles    
Events      
Averages and records for this station are not official NWS values.
T = Trace of Precipitation, MM = Missing Value Source: NWS Daily Summary

Daily Weather History Graph

Daily Weather History Graph

Search for Another Location

Airport:

Trip Planner

Search our weather history database for the weather conditions in past years. The results will help you decide how hot, cold, wet, or windy it might be!

Date:

Astronomy

Feb. 03, 2013 Rise Set
Actual Time 7:35 AM PST 5:18 PM PST
Civil Twilight 7:02 AM PST 5:51 PM PST
Nautical Twilight 6:26 AM PST 6:27 PM PST
Astronomical Twilight 5:50 AM PST 7:03 PM PST
Moon 1:10 AM PST (2/3) 10:56 AM PST (2/3)
Length of Visible Light 10h 48m
Length of Day
9h 43m
Waning Gibbous, 47% of the Moon is Illuminated
Feb 3
Waning Gibbous
Feb 9
New
Feb 17
First Quarter
Feb 25
Full
Mar 4
Last Quarter

Hourly Weather History & Observations

Time (PST) Temp. Windchill Dew Point Humidity Pressure Visibility Wind Dir Wind Speed Gust Speed Precip Events Conditions
12:00 AM 37.4 °F 29.3 °F 37.4 °F 100% 30.27 in 10.0 mi West 12.7 mph - N/A   Overcast
12:15 AM 39.2 °F 33.6 °F 37.4 °F 93% 30.26 in 10.0 mi SW 8.1 mph - N/A   Overcast
12:53 AM 37.9 °F 33.5 °F 37.9 °F 100% 30.27 in 10.0 mi SW 5.8 mph - N/A   Overcast
1:53 AM 39.0 °F 36.8 °F 39.0 °F 100% 30.26 in 10.0 mi SW 3.5 mph - N/A   Overcast
2:35 AM 41.0 °F 39.0 °F 41.0 °F 100% 30.25 in 10.0 mi SSW 3.5 mph - N/A   Overcast
2:53 AM 41.0 °F 39.0 °F 41.0 °F 100% 30.27 in 10.0 mi West 3.5 mph - N/A   Overcast
3:11 AM 42.8 °F - 42.8 °F 100% 30.24 in 10.0 mi Calm Calm - N/A   Overcast
3:53 AM 41.0 °F 39.0 °F 41.0 °F 100% 30.25 in 10.0 mi SSW 3.5 mph - 0.01 in   Overcast
4:26 AM 42.8 °F 41.1 °F 42.8 °F 100% 30.24 in 10.0 mi SSW 3.5 mph - N/A   Overcast
4:53 AM 43.0 °F - 43.0 °F 100% 30.26 in 10.0 mi Calm Calm - N/A   Overcast
5:22 AM 42.8 °F 41.1 °F 42.8 °F 100% 30.25 in 10.0 mi SW 3.5 mph - N/A   Overcast
5:33 AM 42.8 °F - 42.8 °F 100% 30.25 in 10.0 mi Calm Calm - N/A   Overcast
5:53 AM 43.0 °F 41.3 °F 43.0 °F 100% 30.26 in 10.0 mi South 3.5 mph - N/A   Overcast
6:01 AM 42.8 °F - 42.8 °F 100% 30.24 in 10.0 mi Calm Calm - N/A   Overcast
6:12 AM 42.8 °F - 42.8 °F 100% 30.25 in 10.0 mi Calm Calm - N/A   Overcast
6:21 AM 42.8 °F - 42.8 °F 100% 30.26 in 10.0 mi Calm Calm - N/A   Overcast
6:27 AM 42.8 °F - 42.8 °F 100% 30.26 in 10.0 mi Calm Calm - N/A   Overcast
6:49 AM 41.0 °F - 41.0 °F 100% 30.25 in 5.0 mi Calm Calm - N/A   Overcast
6:53 AM 41.0 °F - 41.0 °F 100% 30.27 in 4.0 mi Calm Calm - N/A   Overcast
7:44 AM 41.0 °F 38.0 °F 39.2 °F 93% 30.26 in 4.0 mi ESE 4.6 mph - N/A   Overcast
7:53 AM 41.0 °F - 39.9 °F 96% 30.27 in 8.0 mi Calm Calm - N/A   Overcast
8:53 AM 42.1 °F - 41.0 °F 96% 30.30 in 10.0 mi Calm Calm - N/A   Overcast
9:03 AM 42.8 °F - 42.8 °F 100% 30.28 in 10.0 mi Calm Calm - N/A   Overcast
9:25 AM 42.8 °F - 41.0 °F 93% 30.28 in 10.0 mi Calm Calm - N/A   Overcast
9:53 AM 43.0 °F - 42.1 °F 97% 30.29 in 10.0 mi Calm Calm - N/A   Overcast
10:53 AM 44.1 °F - 43.0 °F 96% 30.28 in 10.0 mi Calm Calm - N/A   Overcast
11:09 AM 44.6 °F - 44.6 °F 100% 30.27 in 10.0 mi Calm Calm - N/A   Overcast
11:53 AM 46.0 °F 41.9 °F 44.1 °F 93% 30.27 in 10.0 mi SW 8.1 mph - N/A   Overcast
12:03 PM 46.4 °F 41.5 °F 44.6 °F 93% 30.26 in 10.0 mi SW 10.4 mph - N/A   Overcast
12:53 PM 46.9 °F - 44.1 °F 90% 30.26 in 10.0 mi SW 8.1 mph - N/A   Overcast
1:29 PM 46.4 °F 42.4 °F 42.8 °F 87% 30.24 in 10.0 mi SW 8.1 mph - N/A   Overcast
1:53 PM 46.9 °F - 44.1 °F 90% 30.24 in 10.0 mi SW 8.1 mph - N/A   Overcast
2:34 PM 46.4 °F 42.9 °F 42.8 °F 87% 30.22 in 10.0 mi SSW 6.9 mph - N/A   Overcast
2:48 PM 46.4 °F 42.9 °F 42.8 °F 87% 30.23 in 10.0 mi SW 6.9 mph - N/A   Overcast
2:53 PM 46.9 °F - 43.0 °F 86% 30.24 in 10.0 mi SW 5.8 mph - N/A   Overcast
3:53 PM 46.9 °F - 43.0 °F 86% 30.25 in 10.0 mi SW 6.9 mph - N/A   Overcast
4:10 PM 46.4 °F 42.9 °F 42.8 °F 87% 30.23 in 10.0 mi SSW 6.9 mph - N/A   Overcast
4:43 PM 46.4 °F 42.9 °F 42.8 °F 87% 30.22 in 10.0 mi SW 6.9 mph - N/A   Overcast
4:53 PM 46.0 °F 42.5 °F 43.0 °F 89% 30.23 in 10.0 mi SW 6.9 mph - N/A   Overcast
5:23 PM 46.4 °F 42.9 °F 42.8 °F 87% 30.22 in 10.0 mi SW 6.9 mph - 0.00 in   Overcast
5:53 PM 45.0 °F 41.2 °F 42.1 °F 90% 30.23 in 10.0 mi SSW 6.9 mph - 0.00 in   Overcast
6:53 PM 44.1 °F 40.1 °F 41.0 °F 89% 30.24 in 10.0 mi SW 6.9 mph - N/A   Overcast
7:38 PM 44.6 °F 41.4 °F 41.0 °F 87% 30.21 in 10.0 mi SSW 5.8 mph - N/A   Overcast
7:53 PM 44.1 °F 40.8 °F 41.0 °F 89% 30.22 in 10.0 mi SW 5.8 mph - N/A   Overcast
8:53 PM 44.1 °F 39.0 °F 41.0 °F 89% 30.22 in 10.0 mi SSW 9.2 mph - N/A   Overcast
9:53 PM 44.1 °F 38.6 °F 41.0 °F 89% 30.22 in 10.0 mi SW 10.4 mph - N/A   Overcast
10:44 PM 42.8 °F 38.6 °F 41.0 °F 93% 30.20 in 10.0 mi SW 6.9 mph - N/A   Overcast
10:53 PM 43.0 °F 38.8 °F 41.0 °F 93% 30.20 in 10.0 mi SSW 6.9 mph - N/A   Overcast
11:20 PM 42.8 °F 38.0 °F 41.0 °F 93% 30.19 in 10.0 mi SSW 8.1 mph - N/A   Overcast
11:53 PM 43.0 °F 37.7 °F 41.0 °F 93% 30.20 in 10.0 mi SSW 9.2 mph - N/A   Overcast